Regional Weather Roundup
Issued by NWS State College, PA

Home | Current Version | Previous Version | Graphics & Text | Print | Product List | Glossary On
Versions: 1 2 3 4 5 6 7 8 9 10 11 12 13 14 15 16 17 18 19 20 21 22 23 24 25 26 27 28 29 30 31 32 33 34 35 36 37 38 39 40 41 42 43 44 45 46 47 48 49 50
000
ASUS41 KCTP 230510
RWRCTP

REGIONAL WEATHER ROUNDUP
NATIONAL WEATHER SERVICE STATE COLLEGE PA
100 AM EDT WED JUL 23 2014

Note: "fair" indicates few or no clouds below 12,000 feet with no
significant weather and/or obstructions to visibility.

* = STATION THAT DOES NOT REPORT PRECIPITATION /E.G. RAIN...SNOW...ETC/
    THUNDER OR FOG.

PAZ002>004-007>009-013>016-020>023-029>032-230600-
WESTERN PENNSYLVANIA

CITY           SKY/WX    TMP DP  RH WIND       PRES   REMARKS
ERIE           CLEAR     78  67  68 S7        29.98R
MEADVILLE      NOT AVBL
FRANKLIN*      CLEAR     70  64  83 SW6       30.06S
NEW CASTLE       N/A     74  69  84 CALM      30.04R
BEAVER COUNTY  NOT AVBL
BUTLER*        CLEAR     72  66  83 S3        30.07R
PITTSBURGH INT CLEAR     76  69  79 SW5       30.04S
PITTSBURGH     CLEAR     76  67  73 SW9       30.04S
INDIANA*       MOCLDY    72  70  94 CALM      30.09S
LATROBE        CLEAR     72  72 100 SW3       30.06S
WASHINGTON CO* CLEAR     68  66  94 CALM      30.06S
$$

PAZ004>006-010>012-017>019-024>028-033>037-041-042-045-046-049>053-230600-
CENTRAL PENNSYLVANIA

CITY           SKY/WX    TMP DP  RH WIND       PRES   REMARKS
BRADFORD       CLEAR     70  66  87 S3        30.08R
DUBOIS         CLEAR     72  68  87 SW3       30.06S
CLEARFIELD     PTCLDY    70  68  93 CALM      30.07S
JOHNSTOWN      CLEAR     70  67  90 S6        30.11F
ALTOONA        PTCLDY    71  69  93 S3        30.08F
STATE COLLEGE  PTCLDY    72  69  88 SW5       30.06S
WILLIAMSPORT   PTCLDY    75  68  78 CALM      30.01S
SELINSGROVE    CLEAR     75  70  84 SW5       30.03F
FT INDIANTOWN  CLEAR     69  69 100 CALM      30.06F
CAPITAL CITY   PTCLDY    76  68  76 SW8       30.04F
HARRISBURG     CLEAR     77  68  73 SW10G17   30.04F
YORK           CLEAR     73  67  81 CALM      30.05F
$$

PAZ038>040-043-044-047-048-054-055-060>062-067>071-230600-
EASTERN PENNSYLVANIA

CITY           SKY/WX    TMP DP  RH WIND       PRES   REMARKS
SCRANTON       CLEAR     75  68  78 SW7       30.05S
MOUNT POCONO   CLEAR     70  65  84 W10       30.10F
ALLENTOWN      CLEAR     72  66  81 SW6       30.05S
QUAKERTOWN*    CLEAR     70  64  83 CALM      30.07F
READING        CLEAR     75  66  73 CALM      30.04F
LANCASTER      CLEAR     74  65  73 VRB5      30.05F
COATESVILLE    CLEAR     70  68  94 CALM      30.08F
POTTSTOWN      CLEAR     70  65  84 CALM      30.08S
BLUE BELL      CLEAR     72  63  73 CALM      30.05F
DOYLESTOWN     CLEAR     71  62  73 SW3       30.06F
WILLOW GROVE   NOT AVBL
NORTH PHILA    CLEAR     75  58  55 S3        30.07F
PHILADELPHIA   PTCLDY    73  62  68 S6        30.06F
$$



USA.gov is the U.S. government's official web portal to all federal, state and local government web resources and services.